FW6795 Weather Reports


time (UTC)temp
F
wind
direction
speed
knots
gust
knots
rain 1hr
in
rain 24hr
in
rain mn
in
humidity
%
barometer
mb
20260510202548 72 190 3.5 7.8 0.00 0.00 0.00 49 1016.4
20260510202047 72 190 3.5 9.6 0.00 0.00 0.00 49 1016.5
20260510201556 72 190 4.3 9.6 0.00 0.00 0.00 48 1016.5
20260510201104 72 190 5.2 9.6 0.00 0.00 0.00 46 1016.3
20260510200548 72 190 2.6 8.7 0.00 0.00 0.00 50 1016.4
20260510200057 72 190 4.3 9.6 0.00 0.00 0.00 46 1016.4
20260510195549 73 190 6.1 9.6 0.00 0.00 0.00 46 1016.4
20260510195047 73 190 3.5 7.8 0.00 0.00 0.00 48 1016.3
20260510194602 74 190 4.3 7.8 0.00 0.00 0.00 46 1016.3
20260510194048 74 190 1.7 9.6 0.00 0.00 0.00 48 1016.3
20260510193549 74 190 6.1 10.4 0.00 0.00 0.00 46 1016.5
20260510193057 74 190 5.2 10.4 0.00 0.00 0.00 47 1016.5
20260510192548 74 190 5.2 11.3 0.00 0.00 0.00 48 1016.6
20260510192048 73 190 6.1 11.3 0.00 0.00 0.00 48 1016.5
20260510191556 73 190 6.1 12.2 0.00 0.00 0.00 49 1016.7
20260510191047 73 190 5.2 12.2 0.00 0.00 0.00 47 1016.7
20260510190549 72 190 4.3 8.7 0.00 0.00 0.00 48 1016.7
20260510185548 71 190 5.2 11.3 0.00 0.00 0.00 51 1016.9
20260510185048 72 190 4.3 9.6 0.00 0.00 0.00 51 1016.9
20260510184555 72 190 2.6 9.6 0.00 0.00 0.00 51 1016.9
20260510184047 71 190 3.5 9.6 0.00 0.00 0.00 51 1016.9
20260510183548 71 190 3.5 8.7 0.00 0.00 0.00 51 1017.0
20260510183053 71 190 5.2 11.3 0.00 0.00 0.00 51 1016.9
20260510182548 72 190 7.0 12.2 0.00 0.00 0.00 49 1016.9
20260510182048 72 190 7.8 12.2 0.00 0.00 0.00 48 1016.9
20260510181551 72 190 4.3 7.8 0.00 0.00 0.00 51 1016.9
20260510181050 71 190 4.3 13.0 0.00 0.00 0.00 51 1017.1
20260510180548 72 190 7.0 13.0 0.00 0.00 0.00 50 1017.1
20260510180103 73 190 3.5 7.8 0.00 0.00 0.00 50 1017.1
20260510175549 72 0 2.6 6.1 0.00 0.00 0.00 50 1017.0
20260510175048 71 190 1.7 6.1 0.00 0.00 0.00 54 1017.0
20260510174547 70 190 2.6 13.9 0.00 0.00 0.00 54 1017.2
20260510174048 70 190 7.8 13.9 0.00 0.00 0.00 52 1017.2
20260510173548 72 190 2.6 14.8 0.00 0.00 0.00 52 1017.1
20260510173052 71 190 0.0 14.8 0.00 0.00 0.00 52 1017.2
20260510172551 71 190 6.1 14.8 0.00 0.00 0.00 52 1017.3
20260510172048 70 190 5.2 12.2 0.00 0.00 0.00 53 1017.4
20260510171602 70 190 5.2 12.2 0.00 0.00 0.00 50 1017.4
20260510171050 71 190 1.7 10.4 0.00 0.00 0.00 52 1017.3
20260510170547 71 190 3.5 10.4 0.00 0.00 0.00 50 1017.4
20260510170050 72 190 3.5 10.4 0.00 0.00 0.00 50 1017.6
20260510165548 72 190 0.9 7.0 0.00 0.00 0.00 53 1017.4
20260510165048 71 190 2.6 12.2 0.00 0.00 0.00 49 1017.5
20260510164608 70 190 4.3 12.2 0.00 0.00 0.00 54 1017.5
20260510164048 70 190 4.3 10.4 0.00 0.00 0.00 49 1017.5
20260510163548 70 190 5.2 10.4 0.00 0.00 0.00 49 1017.6
20260510163137 70 190 4.3 7.8 0.00 0.00 0.00 52 1017.5
20260510162547 69 190 5.2 9.6 0.00 0.00 0.00 50 1017.7
20260510162047 69 190 3.5 9.6 0.00 0.00 0.00 52 1017.6
20260510161552 69 190 4.3 9.6 0.00 0.00 0.00 52 1017.5
20260510161048 69 190 2.6 8.7 0.00 0.00 0.00 53 1017.5
20260510160547 69 190 2.6 7.8 0.00 0.00 0.00 53 1017.5
20260510160056 69 190 2.6 10.4 0.00 0.00 0.00 53 1017.7
20260510155547 69 190 6.1 12.2 0.00 0.00 0.00 53 1017.6
20260510155047 69 190 4.3 12.2 0.00 0.00 0.00 51 1017.6
20260510154553 68 190 2.6 9.6 0.00 0.00 0.00 54 1017.5
20260510154048 68 190 3.5 11.3 0.00 0.00 0.00 57 1017.5
20260510153547 68 190 4.3 12.2 0.00 0.00 0.00 54 1017.6
20260510153101 68 190 5.2 12.2 0.00 0.00 0.00 55 1017.6
20260510152548 68 190 7.0 13.0 0.00 0.00 0.00 56 1017.6
20260510152048 67 190 6.1 13.0 0.00 0.00 0.00 55 1017.6
20260510151609 67 190 7.8 13.0 0.00 0.00 0.00 58 1017.6
20260510151047 67 190 5.2 9.6 0.00 0.00 0.00 57 1017.7
20260510150548 67 190 3.5 11.3 0.00 0.00 0.00 58 1017.6
20260510150058 67 190 4.3 14.8 0.00 0.00 0.00 59 1017.6
20260510145548 67 190 7.0 14.8 0.00 0.00 0.00 59 1017.6
20260510145048 67 190 5.2 10.4 0.00 0.00 0.00 61 1017.5
20260510144601 66 190 3.5 10.4 0.00 0.00 0.00 62 1017.5
20260510144048 66 190 6.1 12.2 0.00 0.00 0.00 61 1017.5
20260510143547 66 190 6.1 12.2 0.00 0.00 0.00 61 1017.4
20260510143103 66 190 6.1 11.3 0.00 0.00 0.00 64 1017.4
20260510142548 65 190 4.3 10.4 0.00 0.00 0.00 63 1017.4
20260510142047 65 190 3.5 10.4 0.00 0.00 0.00 66 1017.4
20260510141555 64 190 6.1 9.6 0.00 0.00 0.00 64 1017.5
20260510141047 64 190 5.2 8.7 0.00 0.00 0.00 66 1017.5
20260510140550 64 190 5.2 7.8 0.00 0.00 0.00 65 1017.5
20260510140053 63 190 4.3 7.8 0.00 0.00 0.00 66 1017.6
20260510135549 63 190 4.3 7.8 0.00 0.00 0.00 67 1017.7
20260510135051 63 190 3.5 7.8 0.00 0.00 0.00 67 1017.7
20260510134557 62 190 3.5 7.8 0.00 0.00 0.00 69 1017.7
20260510134053 62 190 3.5 7.8 0.00 0.00 0.00 69 1017.7
20260510133550 62 190 3.5 6.1 0.00 0.00 0.00 71 1017.7
20260510133053 61 190 2.6 5.2 0.00 0.00 0.00 72 1017.7
20260510132550 61 190 2.6 5.2 0.00 0.00 0.00 71 1017.7
20260510132053 61 190 3.5 6.1 0.00 0.00 0.00 72 1017.7
20260510131555 60 190 2.6 6.1 0.00 0.00 0.00 75 1017.7
20260510131049 60 190 2.6 5.2 0.00 0.00 0.00 76 1017.6
20260510130554 59 190 2.6 4.3 0.00 0.00 0.00 77 1017.6
20260510130054 58 190 2.6 4.3 0.00 0.00 0.00 77 1017.5
20260510125550 58 190 1.7 4.3 0.00 0.00 0.00 78 1017.4
20260510125053 57 190 2.6 4.3 0.00 0.00 0.00 80 1017.5
20260510124558 57 190 2.6 4.3 0.00 0.00 0.00 81 1017.3
20260510124050 56 190 1.7 4.3 0.00 0.00 0.00 82 1017.3
20260510123550 56 190 1.7 4.3 0.00 0.00 0.00 84 1017.3
20260510123056 55 190 1.7 4.3 0.00 0.00 0.00 86 1017.2
20260510122550 54 190 1.7 4.3 0.00 0.00 0.00 87 1017.1
20260510122049 53 190 2.6 3.5 0.00 0.00 0.00 88 1017.1
20260510121551 53 190 2.6 3.5 0.00 0.00 0.00 90 1017.1
20260510121049 51 190 1.7 2.6 0.00 0.00 0.00 93 1017.1
20260510120548 50 190 0.9 2.6 0.00 0.00 0.00 93 1017.0
20260510115550 49 190 0.9 2.6 0.00 0.00 0.00 94 1016.8
20260510115051 48 190 1.7 2.6 0.00 0.00 0.00 95 1016.7
20260510114552 48 190 1.7 2.6 0.00 0.00 0.00 95 1016.6
20260510114048 47 190 1.7 2.6 0.00 0.00 0.00 95 1016.5
20260510113549 47 190 1.7 2.6 0.00 0.00 0.00 95 1016.4
20260510113051 47 190 1.7 2.6 0.00 0.00 0.00 96 1016.2
20260510112550 47 190 0.0 1.7 0.00 0.00 0.00 95 1016.3
20260510112050 48 0 0.0 0.0 0.00 0.00 0.00 96 1016.2
20260510111551 47 0 0.0 0.0 0.00 0.00 0.00 97 1016.2
20260510111050 45 0 0.0 0.0 0.00 0.00 0.00 97 1016.2
20260510110549 45 0 0.0 0.0 0.00 0.00 0.00 96 1016.1
20260510110052 44 0 0.0 0.0 0.00 0.00 0.00 97 1016.0
20260510105549 44 0 0.0 0.0 0.00 0.00 0.00 97 1015.9
20260510105052 42 0 0.0 0.0 0.00 0.00 0.00 96 1015.9
20260510104553 41 0 0.0 0.0 0.00 0.00 0.00 96 1016.0
20260510104050 41 0 0.0 0.0 0.00 0.00 0.00 96 1015.9
20260510103550 41 0 0.0 1.7 0.00 0.00 0.00 96 1016.0
20260510103053 41 0 0.0 1.7 0.00 0.00 0.00 96 1015.8
20260510102550 41 190 0.0 0.0 0.00 0.00 0.00 96 1015.8
20260510102050 41 0 0.0 0.0 0.00 0.00 0.00 96 1015.6
20260510101554 42 0 0.0 0.0 0.00 0.00 0.00 96 1015.6
20260510101049 42 0 0.0 0.0 0.00 0.00 0.00 96 1015.6
20260510100551 42 0 0.0 0.0 0.00 0.00 0.00 96 1015.5
20260510100108 42 0 0.0 0.0 0.00 0.00 0.00 96 1015.5
20260510095550 42 0 0.0 0.0 0.00 0.00 0.00 96 1015.5
20260510095052 43 0 0.0 0.0 0.00 0.00 0.00 96 1015.5
20260510094601 42 0 0.0 0.0 0.00 0.00 0.00 96 1015.4
20260510094049 42 0 0.0 0.0 0.00 0.00 0.00 96 1015.5
20260510093549 43 0 0.0 0.0 0.00 0.00 0.00 96 1015.4
20260510093058 43 0 0.0 0.0 0.00 0.00 0.00 96 1015.4
20260510092550 43 0 0.0 0.0 0.00 0.00 0.00 96 1015.3
20260510092049 43 0 0.0 0.0 0.00 0.00 0.00 96 1015.3
20260510091554 44 0 0.0 0.0 0.00 0.00 0.00 96 1015.2
20260510091050 44 0 0.0 0.0 0.00 0.00 0.00 96 1015.1
20260510090551 43 0 0.0 0.0 0.00 0.00 0.00 96 1015.1
20260510090058 43 0 0.0 0.0 0.00 0.00 0.00 96 1015.1
20260510085549 42 0 0.0 0.0 0.00 0.00 0.00 95 1015.0
20260510085049 43 0 0.0 0.0 0.00 0.00 0.00 95 1015.0
20260510084611 43 0 0.0 0.0 0.00 0.00 0.00 96 1014.9
20260510084052 44 0 0.0 0.0 0.00 0.00 0.00 96 1014.8
20260510083550 44 0 0.0 0.0 0.00 0.00 0.00 95 1014.8
20260510083053 44 0 0.0 0.0 0.00 0.00 0.00 96 1014.7
20260510082549 44 0 0.0 0.0 0.00 0.00 0.00 96 1014.6
20260510082049 44 0 0.0 0.0 0.00 0.00 0.00 96 1014.6
20260510081555 43 0 0.0 0.0 0.00 0.00 0.00 96 1014.6
20260510081049 43 0 0.0 0.0 0.00 0.00 0.00 95 1014.4
20260510080550 43 0 0.0 0.0 0.00 0.00 0.00 95 1014.4
20260510080051 43 0 0.0 0.0 0.00 0.00 0.00 95 1014.4
20260510075550 43 0 0.0 0.0 0.00 0.00 0.00 94 1014.3
20260510075049 44 0 0.0 0.0 0.00 0.00 0.00 94 1014.3
20260510074549 44 0 0.0 0.0 0.00 0.00 0.00 94 1014.2
20260510074049 45 0 0.0 0.0 0.00 0.00 0.00 94 1014.2
20260510073549 46 0 0.0 0.0 0.00 0.00 0.00 95 1014.1
20260510073103 46 0 0.0 0.0 0.00 0.00 0.00 95 1014.0
20260510072549 45 0 0.0 0.0 0.00 0.00 0.00 95 1014.1
20260510072052 45 0 0.0 0.0 0.00 0.00 0.00 95 1014.2
20260510071553 45 0 0.0 0.0 0.00 0.00 0.00 95 1014.2
20260510071048 45 0 0.0 0.0 0.00 0.00 0.00 95 1014.2
20260510070548 45 0 0.0 0.0 0.00 0.00 0.00 94 1014.2
20260510070055 45 0 0.0 0.0 0.00 0.00 0.00 94 1014.2
20260510065551 45 0 0.0 1.7 0.00 0.00 0.00 94 1014.1
20260510065050 46 0 0.0 1.7 0.00 0.00 0.00 94 1014.1
20260510064554 46 190 0.9 1.7 0.00 0.00 0.00 94 1014.1
20260510064049 46 190 0.9 1.7 0.00 0.00 0.00 94 1014.1
20260510063549 46 0 0.0 0.0 0.00 0.00 0.00 94 1014.0
20260510063053 46 0 0.0 0.0 0.00 0.00 0.00 94 1014.2
20260510062550 46 0 0.0 0.0 0.00 0.00 0.00 94 1014.2
20260510062049 46 0 0.0 0.0 0.00 0.00 0.00 93 1014.2
20260510061556 46 0 0.0 0.0 0.00 0.00 0.00 93 1014.1
20260510061051 47 0 0.0 0.0 0.00 0.00 0.00 93 1014.2
20260510060550 47 0 0.0 0.0 0.00 0.00 0.00 92 1014.3
20260510060055 47 0 0.0 0.0 0.00 0.00 0.00 93 1014.3
20260510055549 47 0 0.0 0.0 0.00 0.00 0.00 92 1014.3
20260510055052 48 0 0.0 0.0 0.00 0.00 0.00 92 1014.3
20260510054551 48 0 0.0 0.0 0.00 0.00 0.00 94 1014.3
20260510054048 48 0 0.0 0.0 0.00 0.00 0.00 94 1014.4
20260510053548 48 0 0.0 0.0 0.00 0.00 0.00 94 1014.5
20260510053100 47 0 0.0 0.0 0.00 0.00 0.00 94 1014.5
20260510052548 46 0 0.0 0.0 0.00 0.00 0.00 93 1014.5
20260510052052 46 0 0.0 0.0 0.00 0.00 0.00 92 1014.4
20260510051553 47 0 0.0 0.0 0.00 0.00 0.00 92 1014.3
20260510051049 47 0 0.0 0.0 0.00 0.00 0.00 92 1014.2
20260510050549 47 0 0.0 0.0 0.00 0.00 0.00 91 1014.2
20260510050056 47 0 0.0 0.0 0.00 0.00 0.00 91 1014.3
20260510045549 48 0 0.0 0.0 0.00 0.00 0.00 90 1014.2
20260510045049 48 0 0.0 0.0 0.00 0.00 0.00 91 1014.2
20260510044556 48 0 0.0 0.0 0.00 0.00 0.00 90 1014.2
20260510044049 48 0 0.0 0.0 0.00 0.00 0.00 89 1014.3
20260510043550 48 0 0.0 0.0 0.00 0.00 0.00 87 1014.4
20260510043102 49 0 0.0 0.0 0.00 0.00 0.00 87 1014.4
20260510042549 50 0 0.0 0.0 0.00 0.00 0.00 86 1014.3
20260510042048 50 0 0.0 0.0 0.00 0.00 0.00 87 1014.3
20260510041551 50 0 0.0 0.0 0.00 0.00 0.00 87 1014.5
20260510041049 50 0 0.0 0.0 0.00 0.00 0.00 87 1014.5
20260510040550 50 0 0.0 0.0 0.00 0.00 0.00 86 1014.4
20260510040100 51 0 0.0 0.0 0.00 0.00 0.00 84 1014.3
20260510035548 51 0 0.0 0.0 0.00 0.00 0.00 83 1014.3
20260510035048 52 0 0.0 0.0 0.00 0.00 0.00 82 1014.4
20260510034552 52 0 0.0 0.0 0.00 0.00 0.00 82 1014.3
20260510034050 52 0 0.0 0.0 0.00 0.00 0.00 83 1014.3
20260510033552 52 0 0.0 0.0 0.00 0.00 0.00 84 1014.2
20260510033115 52 0 0.0 0.0 0.00 0.00 0.00 83 1014.3
20260510032551 52 0 0.0 0.0 0.00 0.00 0.00 82 1014.3
20260510032049 52 0 0.0 0.0 0.00 0.00 0.00 82 1014.1
20260510031558 53 0 0.0 0.0 0.00 0.00 0.00 82 1014.2
20260510031048 53 0 0.0 0.0 0.00 0.00 0.00 82 1014.1
20260510030549 53 0 0.0 0.0 0.00 0.00 0.00 80 1014.1
20260510030059 53 0 0.0 0.0 0.00 0.00 0.00 82 1014.1
20260510025549 53 0 0.0 0.0 0.00 0.00 0.00 82 1014.0
20260510025049 53 0 0.0 0.0 0.00 0.00 0.00 81 1013.9
20260510024552 53 0 0.0 0.0 0.00 0.00 0.00 81 1013.9
20260510024052 53 0 0.0 0.0 0.00 0.00 0.00 81 1013.8
20260510023548 53 0 0.0 0.0 0.00 0.00 0.00 80 1013.8
20260510023049 54 0 0.0 0.0 0.00 0.00 0.00 79 1013.8
20260510022549 54 0 0.0 0.0 0.00 0.00 0.00 79 1013.8
20260510022051 54 0 0.0 0.0 0.00 0.00 0.00 80 1013.7
20260510021554 54 0 0.0 0.0 0.00 0.00 0.00 80 1013.6
20260510021048 54 0 0.0 0.0 0.00 0.00 0.00 79 1013.7
20260510020548 54 0 0.0 0.0 0.00 0.00 0.00 77 1013.6
20260510020056 55 0 0.0 0.0 0.00 0.00 0.00 76 1013.5
20260510015549 55 0 0.0 0.0 0.00 0.00 0.00 77 1013.4
20260510015049 56 0 0.0 0.0 0.00 0.00 0.00 76 1013.3
20260510014555 56 0 0.0 0.0 0.00 0.00 0.00 76 1013.3
20260510014050 56 0 0.0 0.0 0.00 0.00 0.00 75 1013.2
20260510013549 56 0 0.0 0.0 0.00 0.00 0.00 75 1013.1
20260510013055 57 0 0.0 0.0 0.00 0.00 0.00 74 1013.0
20260510012553 57 0 0.0 0.0 0.00 0.00 0.00 74 1012.9
20260510012050 57 0 0.0 0.0 0.00 0.00 0.00 74 1012.8
20260510011600 56 0 0.0 0.0 0.00 0.00 0.00 74 1012.9
20260510011048 57 0 0.0 0.0 0.00 0.00 0.00 73 1012.7
20260510010548 57 0 0.0 0.0 0.00 0.00 0.00 73 1012.5
20260510010059 57 0 0.0 0.9 0.00 0.00 0.00 72 1012.6
20260510005548 58 0 0.0 0.9 0.00 0.00 0.00 70 1012.5
20260510005049 58 190 0.0 0.0 0.00 0.00 0.00 70 1012.2
20260510004552 59 0 0.0 0.0 0.00 0.00 0.00 69 1012.0
20260510004049 59 0 0.0 0.0 0.00 0.00 0.00 69 1012.0
20260510003549 59 0 0.0 0.0 0.00 0.00 0.00 68 1012.1
20260510003053 60 0 0.0 0.0 0.00 0.00 0.00 67 1012.0
20260510002548 60 0 0.0 0.0 0.00 0.00 0.00 67 1012.2
20260510002049 61 0 0.0 0.0 0.00 0.00 0.00 66 1012.2
20260510001557 61 0 0.0 0.0 0.00 0.00 0.00 65 1012.1
20260510001051 62 0 0.0 0.0 0.00 0.00 0.00 65 1012.0
20260510000549 62 0 0.0 1.7 0.00 0.00 0.00 65 1012.1
20260510000106 62 0 0.0 1.7 0.00 0.00 0.00 63 1011.9
20260509235549 63 190 0.9 3.5 0.00 0.00 0.00 62 1011.9
20260509235048 64 0 0.0 3.5 0.00 0.00 0.00 61 1011.9
20260509234559 64 190 0.9 4.3 0.00 0.00 0.00 60 1012.0
20260509234049 65 190 1.7 4.3 0.00 0.00 0.00 59 1011.8
20260509233548 65 190 2.6 6.1 0.00 0.00 0.00 57 1011.6
20260509233052 65 190 1.7 7.0 0.00 0.00 0.00 57 1011.6
20260509232548 66 190 2.6 7.0 0.00 0.00 0.00 56 1011.5
20260509232049 66 190 1.7 5.2 0.00 0.00 0.00 56 1011.5
20260509231557 67 190 2.6 7.8 0.00 0.00 0.00 55 1011.4
20260509231049 67 190 3.5 7.8 0.00 0.00 0.00 54 1011.3
20260509230548 67 190 3.5 7.0 0.00 0.00 0.00 55 1011.2
20260509230053 66 190 1.7 7.0 0.00 0.00 0.00 56 1011.1
20260509225550 66 190 3.5 7.0 0.00 0.00 0.00 56 1011.2
20260509225048 66 190 2.6 7.0 0.00 0.00 0.00 56 1011.0
20260509224555 66 190 4.3 7.8 0.00 0.00 0.00 56 1011.0
20260509224049 66 190 3.5 7.8 0.00 0.00 0.00 56 1011.0
20260509223549 66 190 4.3 7.8 0.00 0.00 0.00 55 1010.9
20260509223100 67 190 2.6 7.8 0.00 0.00 0.00 55 1011.0
20260509222548 67 190 3.5 8.7 0.00 0.00 0.00 54 1011.2
20260509222049 67 190 2.6 8.7 0.00 0.00 0.00 55 1011.3
20260509221556 67 190 4.3 12.2 0.00 0.00 0.00 54 1011.2
20260509221049 67 190 6.1 12.2 0.00 0.00 0.00 54 1011.2
20260509220549 67 190 6.1 15.6 0.00 0.00 0.00 54 1011.2
20260509220057 67 190 7.8 15.6 0.00 0.00 0.00 53 1011.1
20260509215549 67 190 7.0 16.5 0.00 0.00 0.00 53 1011.0
20260509215049 67 190 7.8 16.5 0.00 0.00 0.00 52 1010.9
20260509214556 67 190 5.2 12.2 0.00 0.00 0.00 54 1010.9
20260509214048 67 190 7.0 12.2 0.00 0.00 0.00 54 1010.9
20260509213548 67 190 7.8 12.2 0.00 0.00 0.00 55 1010.8
20260509213055 66 190 4.3 8.7 0.00 0.00 0.00 61 1010.9
20260509212550 66 190 4.3 11.3 0.00 0.00 0.00 61 1010.8
20260509212049 66 190 6.1 11.3 0.00 0.00 0.00 60 1010.8
20260509211551 67 190 1.7 7.8 0.00 0.00 0.00 64 1010.8
20260509211048 66 190 4.3 9.6 0.00 0.00 0.00 62 1010.7
20260509210547 67 190 5.2 9.6 0.00 0.00 0.00 62 1010.8
20260509210059 67 190 5.2 8.7 0.00 0.00 0.00 61 1010.7
20260509205548 66 190 4.3 7.8 0.00 0.00 0.00 60 1010.5
20260509205051 66 190 3.5 7.8 0.00 0.00 0.00 60 1010.6
20260509204558 66 190 3.5 7.8 0.00 0.00 0.00 59 1010.7
20260509204049 66 190 5.2 7.8 0.00 0.00 0.00 61 1010.7
20260509203548 66 190 4.3 7.8 0.00 0.00 0.00 60 1010.6
20260509203050 66 190 3.5 7.8 0.00 0.00 0.00 59 1010.6